This is the latest recevied weather packets stored in our database for station/object DC4THF-13. If no packets are shown the sender has not sent any weather packets the latest 1 day(s).
| Time | Temp. | Humidity | Pressure | Rain* | Wind** | Luminosity | Snow |
|---|---|---|---|---|---|---|---|
| 1778027559 | 11.67° C | 94% | 1001 hPa | 1.52 mm | 1.34 m/s, 25° | - | - |
| 1778026956 | 12.22° C | 94% | 1001.1 hPa | 1.27 mm | 0.45 m/s, 352° | - | - |
| 1778026353 | 12.22° C | 93% | 1001.3 hPa | 1.02 mm | 0.89 m/s, 0° | - | - |
| 1778025749 | 12.22° C | 93% | 1001.4 hPa | 0.51 mm | 1.34 m/s, 0° | - | - |
| 1778025146 | 12.22° C | 92% | 1001.6 hPa | 0.25 mm | 0.45 m/s, 0° | - | - |
| 1778024543 | 12.22° C | 92% | 1001.6 hPa | 0.51 mm | 0.45 m/s, 0° | - | - |
| 1778023939 | 12.22° C | 91% | 1001.6 hPa | 0.25 mm | 0.45 m/s, 333° | - | - |
| 1778023336 | 12.22° C | 90% | 1001.6 hPa | 0.25 mm | 1.34 m/s, 331° | - | - |
| 1778022792 | 12.22° C | 89% | 1001.8 hPa | 0.25 mm | 0.45 m/s, 27° | - | - |
| 1778022188 | 12.78° C | 85% | 1001.7 hPa | 0.25 mm | 0.45 m/s, 26° | - | - |
| 1778021584 | 12.78° C | 84% | 1001.9 hPa | 0.25 mm | 0.89 m/s, 324° | - | - |
| 1778020981 | 12.78° C | 83% | 1001.9 hPa | 0 mm | 1.79 m/s, 341° | - | - |
| 1778020377 | 12.78° C | 82% | 1001.8 hPa | 0 mm | 0.89 m/s, 45° | - | - |
| 1778019773 | 13.33° C | 81% | 1001.9 hPa | 0 mm | 0.89 m/s, 333° | - | - |
| 1778018566 | 13.33° C | 81% | 1001.9 hPa | 0 mm | 0.89 m/s, 328° | - | - |
| 1778017963 | 13.33° C | 81% | 1001.9 hPa | 0 mm | 0.89 m/s, 32° | - | - |
| 1778017359 | 13.89° C | 81% | 1001.9 hPa | 0 mm | 0.89 m/s, 0° | - | - |
| 1778016756 | 13.89° C | 80% | 1002 hPa | 0 mm | 1.34 m/s, 350° | - | - |
| 1778016153 | 13.89° C | 80% | 1001.8 hPa | 0 mm | 1.34 m/s, 336° | - | - |
| 1778015579 | 13.89° C | 80% | 1001.6 hPa | 0 mm | 1.79 m/s, 352° | - | - |
| 1778014975 | 14.44° C | 79% | 1001.7 hPa | 0 mm | 1.34 m/s, 332° | - | - |
| 1778013768 | 15° C | 78% | 1001.9 hPa | 0 mm | 0.89 m/s, 350° | - | - |
| 1778013164 | 15° C | 77% | 1001.9 hPa | 0 mm | 0.89 m/s, 354° | - | - |
| 1778012561 | 15° C | 77% | 1001.7 hPa | 0 mm | 0.89 m/s, 345° | - | - |
| 1778011957 | 15.56° C | 76% | 1001.8 hPa | 0 mm | 1.34 m/s, 352° | - | - |
* Rain latest hour (hover to see other rain measurements)
** Current wind speed in m/s (hover to see current wind gust speed)